Retour au catalogue

STARLINK-5243

ActifCommunicationsVLEO
NORAD 54167·PAYLOAD·🇺🇸 United States

Lancé Oct 28, 2022 depuis Vandenberg Space Force Base

Loading…

Prochains Passages (prochaines 24 heures)

TLE

FraisSource: CelesTrak SupGP

Époque: Sep 15, 2026, 01:29 UTC

1 54167C 22141L   26258.06229167  .00709890  00000+0  30256-1 0  2586
2 54167  53.1611 242.6272 0001370  92.8531  13.4262 15.22070799    17

Suivez STARLINK-5243 en temps réel avec AllMySat

Download on the App Store